Date String (YYYY-MM-DD hh:mm:ss) UTC,Instrument flags,Ambient pressure (hPa),Sample flow (lpm),Bypass flow (lpm),Sample temperature (°C),Ambient temperature (°C),ASC tube jacket temperature (°C),LED temperature (°C),Box temperature (°C),Sample RH (%),Span deviation,Mass concentration (μg/m³),Mass concentration (μg/m³),Mass concentration (μg/m³)
DateTimeUTC,F1_M11,P_M11,Q1_M11,Q2_M11,T1_M11,T2_M11,T3_M11,T4_M11,T5_M11,U1_M11,ZSPAN_M11,X0_M11,X2_M11,X1_M11
2022-02-05 01:00:00,,0831.7,5.00,0.00,22.0,21.2,00.0,31.3,23.6,08.5,0000.0,0009.11,0003.97,0003.56
2022-02-05 01:01:00,,0831.7,4.98,0.00,22.0,21.2,00.0,31.3,23.6,08.5,0000.0,0008.93,0003.96,0003.55
2022-02-05 01:02:00,,0831.7,5.01,0.00,22.0,21.2,00.0,31.3,23.6,08.5,0000.0,0008.84,0003.91,0003.53
2022-02-05 01:03:00,,0831.6,4.99,0.00,22.0,21.2,00.0,31.2,23.6,08.4,0000.0,0008.82,0003.89,0003.52
2022-02-05 01:04:00,,0831.7,5.01,0.00,22.0,21.2,00.0,31.2,23.6,08.3,0000.0,0007.96,0003.84,0003.49
2022-02-05 01:05:00,,0831.6,4.99,0.00,22.0,21.2,00.0,31.2,23.6,08.3,0000.0,0007.55,0003.77,0003.46
2022-02-05 01:06:00,,0831.7,5.00,0.00,22.0,21.2,00.0,31.2,23.6,08.3,0000.0,0007.40,0003.72,0003.43
2022-02-05 01:07:00,,0831.7,5.01,0.00,21.9,21.1,00.0,31.2,23.5,08.4,0000.0,0007.37,0003.67,0003.39
2022-02-05 01:08:00,,0831.7,4.99,0.00,21.9,21.0,00.0,31.1,23.5,08.4,0000.0,0007.16,0003.65,0003.36
2022-02-05 01:09:00,,0831.7,5.01,0.00,21.8,21.0,00.0,31.1,23.4,08.3,0000.0,0007.41,0003.62,0003.33
2022-02-05 01:10:00,,0831.7,5.00,0.00,21.8,21.0,00.0,31.1,23.4,08.3,0000.0,0007.63,0003.60,0003.30
2022-02-05 01:11:00,,0831.7,4.99,0.00,21.8,21.0,00.0,31.0,23.4,08.3,0000.0,0007.50,0003.55,0003.27
2022-02-05 01:12:00,,0831.6,5.00,0.00,21.7,21.0,00.0,31.0,23.3,08.3,0000.0,0007.44,0003.52,0003.26
2022-02-05 01:13:00,,0831.6,4.99,0.00,21.7,21.0,00.0,31.0,23.3,08.2,0000.0,0007.48,0003.51,0003.24
2022-02-05 01:14:00,,0831.6,5.00,0.00,21.7,21.0,00.0,31.0,23.4,08.2,0000.0,0007.46,0003.50,0003.21
2022-02-05 01:15:00,,0831.6,5.01,0.00,21.8,21.0,00.0,31.0,23.4,08.2,0000.0,0007.61,0003.52,0003.21
2022-02-05 01:16:00,,0831.7,4.99,0.00,21.8,21.1,00.0,30.9,23.4,08.2,0000.0,0008.49,0003.56,0003.22
2022-02-05 01:17:00,,0831.7,4.99,0.00,21.8,21.1,00.0,30.9,23.4,08.2,0000.0,0008.73,0003.60,0003.22
2022-02-05 01:18:00,,0831.7,5.00,0.00,21.7,21.0,00.0,30.9,23.4,08.3,0000.0,0008.78,0003.65,0003.24
2022-02-05 01:19:00,,0831.7,4.99,0.00,21.7,21.0,00.0,30.9,23.3,08.3,0000.0,0008.81,0003.67,0003.26
2022-02-05 01:20:00,,0831.7,5.00,0.00,21.7,21.0,00.0,30.9,23.3,08.3,0000.0,0008.46,0003.67,0003.26
2022-02-05 01:21:00,,0831.7,5.00,0.00,21.7,20.9,00.0,30.9,23.2,08.3,0000.0,0008.20,0003.68,0003.28
2022-02-05 01:22:00,,0831.7,5.01,0.00,21.6,20.8,00.0,30.8,23.2,08.3,0000.0,0008.25,0003.69,0003.30
2022-02-05 01:23:00,,0831.7,5.00,0.00,21.6,20.8,00.0,30.8,23.2,08.3,0000.0,0008.29,0003.71,0003.30
2022-02-05 01:24:00,,0831.7,5.00,0.00,21.6,20.9,00.0,30.8,23.3,08.3,0000.0,0008.35,0003.75,0003.31
2022-02-05 01:25:00,,0831.7,5.00,0.00,21.6,21.0,00.0,30.8,23.3,08.2,0000.0,0008.52,0003.75,0003.31
2022-02-05 01:26:00,,0831.6,5.01,0.00,21.7,21.0,00.0,30.8,23.3,08.1,0000.0,0008.53,0003.71,0003.30
2022-02-05 01:27:00,,0831.6,5.00,0.00,21.7,21.0,00.0,30.8,23.4,08.1,0000.0,0007.98,0003.72,0003.29
2022-02-05 01:28:00,,0831.6,4.99,0.00,21.7,21.0,00.0,30.8,23.3,08.2,0000.0,0008.36,0003.71,0003.27
2022-02-05 01:29:00,,0831.7,4.99,0.00,21.6,21.0,00.0,30.7,23.3,08.3,0000.0,0008.65,0003.72,0003.27
2022-02-05 01:30:00,,0831.7,4.99,0.00,21.6,20.9,00.0,30.7,23.2,08.4,0000.0,0009.49,0003.74,0003.30
2022-02-05 01:31:00,,0831.7,5.01,0.00,21.6,20.8,00.0,30.7,23.1,08.5,0000.0,0009.72,0003.78,0003.34
2022-02-05 01:32:00,,0831.7,5.00,0.00,21.6,20.8,00.0,30.7,23.2,08.5,0000.0,0009.71,0003.82,0003.38
2022-02-05 01:33:00,,0831.6,4.99,0.00,21.7,21.4,00.0,30.7,23.4,08.5,0000.0,0009.73,0003.87,0003.42
2022-02-05 01:34:00,,0831.7,5.01,0.00,21.8,22.1,00.0,30.8,23.7,08.5,0000.0,0009.80,0003.91,0003.47
2022-02-05 01:35:00,,0831.7,4.99,0.00,21.9,22.7,00.0,30.8,23.9,08.5,0000.0,0010.36,0003.94,0003.53
2022-02-05 01:36:00,,0831.7,5.01,0.00,22.0,22.4,00.0,30.8,23.9,08.5,0000.0,0010.76,0004.01,0003.60
2022-02-05 01:37:00,,0831.6,4.98,0.00,22.0,22.2,00.0,30.9,23.8,08.5,0000.0,0010.71,0004.07,0003.67
2022-02-05 01:38:00,,0831.6,5.00,0.00,21.9,21.9,00.0,30.9,23.6,08.4,0000.0,0010.53,0004.13,0003.74
2022-02-05 01:39:00,,0831.6,5.01,0.00,21.9,21.8,00.0,30.9,23.6,08.4,0000.0,0010.42,0004.16,0003.80
2022-02-05 01:40:00,,0831.6,5.02,0.00,21.9,21.7,00.0,30.9,23.6,08.3,0000.0,0010.19,0004.17,0003.84
2022-02-05 01:41:00,,0831.7,5.00,0.00,21.9,21.5,00.0,30.9,23.5,08.4,0000.0,0009.42,0004.20,0003.87
2022-02-05 01:42:00,,0831.6,4.99,0.00,21.8,21.3,00.0,30.9,23.5,08.6,0000.0,0009.21,0004.31,0003.96
2022-02-05 01:43:00,,0831.6,4.99,0.00,21.8,21.2,00.0,30.8,23.4,08.5,0000.0,0009.34,0004.40,0004.02
2022-02-05 01:44:00,,0831.6,5.02,0.00,21.7,21.1,00.0,30.8,23.3,08.6,0000.0,0009.44,0004.45,0004.05
2022-02-05 01:45:00,,0831.6,4.98,0.00,21.7,21.1,00.0,30.8,23.3,08.6,0000.0,0009.61,0004.54,0004.13
2022-02-05 01:46:00,,0831.6,5.00,0.00,21.7,21.0,00.0,30.8,23.2,08.8,0000.0,0009.37,0004.63,0004.20
2022-02-05 01:47:00,,0831.6,5.01,0.00,21.6,20.9,00.0,30.8,23.2,08.8,0000.0,0008.67,0004.73,0004.27
2022-02-05 01:48:00,,0831.6,4.99,0.00,21.6,20.9,00.0,30.8,23.2,08.7,0000.0,0008.83,0004.85,0004.35
2022-02-05 01:49:00,,0831.6,5.01,0.00,21.6,20.9,00.0,30.8,23.3,08.6,0000.0,0009.20,0004.94,0004.41
2022-02-05 01:50:00,,0831.5,4.99,0.00,21.6,20.9,00.0,30.7,23.2,08.7,0000.0,0009.26,0005.01,0004.48
2022-02-05 01:51:00,,0831.6,5.00,0.00,21.5,20.8,00.0,30.7,23.2,08.8,0000.0,0009.28,0005.08,0004.55
2022-02-05 01:52:00,,0831.6,5.02,0.00,21.5,20.8,00.0,30.7,23.1,08.7,0000.0,0009.52,0005.16,0004.60
2022-02-05 01:53:00,,0831.6,4.99,0.00,21.5,20.7,00.0,30.7,23.1,08.7,0000.0,0009.62,0005.17,0004.60
2022-02-05 01:54:00,,0831.6,4.99,0.00,21.4,20.5,00.0,30.7,23.0,08.8,0000.0,0009.55,0005.17,0004.63
2022-02-05 01:55:00,,0831.6,5.01,0.00,21.4,20.4,00.0,30.6,22.9,08.9,0000.0,0009.76,0005.25,0004.71
2022-02-05 01:56:00,,0831.6,5.00,0.00,21.4,20.9,00.0,30.6,23.1,08.8,0000.0,0009.77,0005.25,0004.69
2022-02-05 01:57:00,,0831.6,4.99,0.00,21.6,21.7,00.0,30.7,23.4,08.6,0000.0,0009.93,0005.19,0004.63
2022-02-05 01:58:00,,0831.6,5.01,0.00,21.7,22.5,00.0,30.7,23.6,08.6,0000.0,0010.53,0005.12,0004.57
2022-02-05 01:59:00,,0831.5,5.00,0.00,21.8,22.7,00.0,30.7,23.8,08.5,0000.0,0010.32,0005.00,0004.49
